courier-journal.com alexa rank chart, courier-journal.com alexa rank daily changes

courier-journal.com alexa rank chart, courier-journal.com alexa rank daily changes

courier-journal.com
Actual rank:
54 310

RANK HISTORY

Date Rank Diff
2017/11/21 54 310 +287
2017/11/20 54 023 +590
2017/11/19 53 433 +836
2017/11/18 52 597 +1 051
2017/11/17 51 546 -262
2017/11/16 51 808 -317
2017/11/15 52 125 -282
2017/11/14 52 407 +117
2017/11/13 52 290 +58
2017/11/12 52 232 -111
2017/11/11 52 343 -764
2017/11/10 53 107 -657
2017/11/09 53 764 -824
2017/11/08 54 588 +2 001
2017/11/07 52 587 +995
2017/11/06 51 592 -254
2017/11/05 51 846 -255
2017/11/04 52 101 +935
2017/11/03 51 166 -575
2017/11/02 51 741 +173
2017/11/01 51 568 +379
2017/10/31 51 189 +1 930
2017/10/30 49 259 +3 000
2017/10/29 46 259 +4 790
2017/10/28 41 469 +1 870
2017/10/27 39 599 +32
2017/10/26 39 567 +3
2017/10/25 39 564 +79
2017/10/24 39 485 -15
2017/10/23 39 500 +202
2017/10/22 39 298 +201
2017/10/21 39 097 +507
2017/10/20 38 590 -332
2017/10/19 38 922 -130
2017/10/18 39 052 +46
2017/10/17 39 006 -58
2017/10/16 39 064 +35
2017/10/14 39 029 -4
2017/10/13 39 033 -22
2017/10/12 39 055 -101
2017/10/11 39 156 +379
2017/10/10 38 777 -102
2017/10/09 38 879 -134
2017/10/08 39 013 -1 099
2017/10/07 40 112 -979
2017/10/06 41 091 -235
2017/10/05 41 326 -327
2017/10/04 41 653 -927
2017/10/03 42 580 +4
2017/10/02 42 576 -251
2017/10/01 42 827 -1 388
2017/09/30 44 215 -2 812
2017/09/29 47 027 -6 495
2017/09/28 53 522 -3 084
2017/09/27 56 606 -76
2017/09/26 56 682 +360
2017/09/25 56 322 -416
2017/09/24 56 738 +485
2017/09/23 56 253 +17 227
2017/09/22 39 026

WIDGET FOR YOUR SITE

DOMAINS WITH THE NEAREST RANK

Domain Rank
iibf.org.in 54 305
likefilmdb.ru 54 306
malekpour.ir 54 307
esade.edu 54 308
tpbmirror.us 54 309
courier-journal.com 54 310
legendonlineservices.co.uk 54 311
ttkyy.net 54 312
e-onkyo.com 54 313
ybhpbkyzbihlrk.bid 54 314
history.vn.ua 54 315

DOMAINS WITH THE NEAREST RANK BY TLD .com

Domain Rank
codejunkies.com 54 299
kissteenporn.com 54 301
mobile-files.com 54 302
astroconquest.com 54 303
demio.com 54 304
courier-journal.com 54 310
e-onkyo.com 54 313
jakubmarian.com 54 316
rag-bone.com 54 320
cedexis.com 54 321
bpm-power.com 54 322